Time,TemperatureF,DewpointF,PressureIn,WindDirection,WindDirectionDegrees,WindSpeedMPH,WindSpeedGustMPH,Humidity,HourlyPrecipIn,Conditions,Clouds,dailyrainin,SolarRadiationWatts/m^2,SoftwareType,DateUTC
2013-05-29 00:07:00,55.5,53.0,29.70,SSE,157,0.0,0.0,92,0.00,,,0.00,0,weatherlink.com 1.10,2013-05-29 04:07:00,
2013-05-29 00:22:00,55.3,53.0,29.70,SSE,157,0.0,1.0,93,0.00,,,0.00,0,weatherlink.com 1.10,2013-05-29 04:22:00,
2013-05-29 00:37:00,55.2,53.0,29.70,SSE,157,0.0,1.0,93,0.00,,,0.00,0,weatherlink.com 1.10,2013-05-29 04:37:00,
2013-05-29 00:52:00,55.2,54.0,29.70,SSE,157,0.0,1.0,94,0.00,,,0.00,0,weatherlink.com 1.10,2013-05-29 04:52:00,
2013-05-29 01:07:00,55.1,53.0,29.70,SSE,157,0.0,2.0,93,0.00,,,0.00,0,weatherlink.com 1.10,2013-05-29 05:07:00,
2013-05-29 01:22:00,55.0,53.0,29.71,SSE,161,2.0,2.0,93,0.00,,,0.00,0,weatherlink.com 1.10,2013-05-29 05:22:00,
2013-05-29 01:37:00,54.9,53.0,29.70,SSE,163,1.0,3.0,93,0.00,,,0.00,0,weatherlink.com 1.10,2013-05-29 05:37:00,
2013-05-29 01:52:00,54.8,53.0,29.71,SSE,163,1.0,3.0,93,0.00,,,0.00,0,weatherlink.com 1.10,2013-05-29 05:52:00,
2013-05-29 02:07:00,54.8,53.0,29.71,SSW,192,2.0,4.0,93,0.00,,,0.00,0,weatherlink.com 1.10,2013-05-29 06:07:00,
2013-05-29 02:22:00,54.8,53.0,29.71,SSW,202,4.0,7.0,93,0.00,,,0.00,0,weatherlink.com 1.10,2013-05-29 06:22:00,
2013-05-29 02:37:00,54.8,53.0,29.71,SSE,161,3.0,4.0,92,0.00,,,0.00,0,weatherlink.com 1.10,2013-05-29 06:37:00,
2013-05-29 02:52:00,55.0,53.0,29.70,SSW,203,1.0,4.0,92,0.00,,,0.00,0,weatherlink.com 1.10,2013-05-29 06:52:00,
2013-05-29 03:07:00,55.1,53.0,29.69,SSW,209,2.0,5.0,92,0.00,,,0.00,0,weatherlink.com 1.10,2013-05-29 07:07:00,
2013-05-29 03:22:00,55.1,53.0,29.70,NW,318,2.0,5.0,92,0.00,,,0.00,0,weatherlink.com 1.10,2013-05-29 07:22:00,
2013-05-29 03:37:00,55.4,53.0,29.70,South,170,1.0,4.0,92,0.00,,,0.00,0,weatherlink.com 1.10,2013-05-29 07:37:00,
2013-05-29 03:52:00,55.6,53.0,29.70,SSE,165,0.0,3.0,92,0.00,,,0.00,0,weatherlink.com 1.10,2013-05-29 07:52:00,
2013-05-29 04:07:00,55.8,54.0,29.71,South,176,0.0,4.0,92,0.00,,,0.00,0,weatherlink.com 1.10,2013-05-29 08:07:00,
2013-05-29 04:22:00,56.0,54.0,29.71,SSW,204,0.0,5.0,92,0.00,,,0.00,0,weatherlink.com 1.10,2013-05-29 08:22:00,
2013-05-29 04:37:00,56.1,54.0,29.71,SSW,197,0.0,2.0,92,0.00,,,0.00,0,weatherlink.com 1.10,2013-05-29 08:37:00,
2013-05-29 04:52:00,56.3,54.0,29.71,SSW,202,1.0,3.0,92,0.00,,,0.00,0,weatherlink.com 1.10,2013-05-29 08:52:00,
2013-05-29 05:07:00,56.7,54.0,29.71,WSW,244,0.0,3.0,91,0.00,,,0.00,0,weatherlink.com 1.10,2013-05-29 09:07:00,
2013-05-29 05:22:00,56.8,54.0,29.70,WSW,244,0.0,1.0,91,0.00,,,0.00,0,weatherlink.com 1.10,2013-05-29 09:22:00,
2013-05-29 05:37:00,56.7,54.0,29.70,WSW,244,0.0,0.0,91,0.00,,,0.00,0,weatherlink.com 1.10,2013-05-29 09:37:00,
2013-05-29 05:52:00,56.7,54.0,29.70,WSW,244,0.0,0.0,91,0.00,,,0.00,0,weatherlink.com 1.10,2013-05-29 09:52:00,
2013-05-29 06:07:00,56.8,54.0,29.71,WSW,244,0.0,1.0,91,0.00,,,0.00,0,weatherlink.com 1.10,2013-05-29 10:07:00,
2013-05-29 06:22:00,57.0,55.0,29.71,WSW,244,0.0,1.0,91,0.00,,,0.00,7,weatherlink.com 1.10,2013-05-29 10:22:00,
2013-05-29 06:37:00,57.1,55.0,29.72,WSW,244,0.0,0.0,91,0.00,,,0.00,11,weatherlink.com 1.10,2013-05-29 10:37:00,
2013-05-29 06:52:00,57.2,55.0,29.73,WSW,244,0.0,0.0,91,0.00,,,0.00,16,weatherlink.com 1.10,2013-05-29 10:52:00,
2013-05-29 07:07:00,57.0,54.0,29.73,WSW,245,1.0,3.0,89,0.00,,,0.00,35,weatherlink.com 1.10,2013-05-29 11:07:00,
2013-05-29 07:22:00,55.0,51.0,29.74,NNW,333,2.0,3.0,85,0.00,,,0.00,39,weatherlink.com 1.10,2013-05-29 11:22:00,
2013-05-29 07:37:00,53.3,50.0,29.74,North,355,0.0,3.0,87,0.00,,,0.00,70,weatherlink.com 1.10,2013-05-29 11:37:00,
2013-05-29 07:52:00,53.0,50.0,29.75,North,355,0.0,1.0,89,0.00,,,0.00,72,weatherlink.com 1.10,2013-05-29 11:52:00,
2013-05-29 08:07:00,53.3,50.0,29.75,North,355,0.0,0.0,89,0.00,,,0.00,54,weatherlink.com 1.10,2013-05-29 12:07:00,
2013-05-29 08:22:00,54.2,51.0,29.76,North,355,0.0,1.0,90,0.00,,,0.00,40,weatherlink.com 1.10,2013-05-29 12:22:00,
2013-05-29 08:37:00,54.9,52.0,29.77,North,355,0.0,0.0,89,0.00,,,0.00,39,weatherlink.com 1.10,2013-05-29 12:37:00,
2013-05-29 08:52:00,55.5,52.0,29.76,North,355,0.0,2.0,89,0.00,,,0.00,81,weatherlink.com 1.10,2013-05-29 12:52:00,
2013-05-29 09:08:00,57.1,55.0,29.76,North,355,0.0,3.0,91,0.00,,,0.00,142,weatherlink.com 1.10,2013-05-29 13:08:00,
2013-05-29 09:23:00,59.8,57.0,29.76,North,351,0.0,3.0,89,0.00,,,0.00,178,weatherlink.com 1.10,2013-05-29 13:23:00,
2013-05-29 09:38:00,62.0,58.0,29.76,NE,53,0.0,3.0,85,0.00,,,0.00,211,weatherlink.com 1.10,2013-05-29 13:38:00,
2013-05-29 09:53:00,63.3,58.0,29.76,ESE,103,2.0,5.0,82,0.00,,,0.00,227,weatherlink.com 1.10,2013-05-29 13:53:00,
2013-05-29 10:08:00,64.5,59.0,29.76,SSE,162,0.0,5.0,83,0.00,,,0.00,230,weatherlink.com 1.10,2013-05-29 14:08:00,
2013-05-29 10:23:00,66.0,59.0,29.76,SSE,162,2.0,5.0,77,0.00,,,0.00,339,weatherlink.com 1.10,2013-05-29 14:23:00,
2013-05-29 10:38:00,67.4,58.0,29.76,SE,127,0.0,2.0,73,0.00,,,0.00,283,weatherlink.com 1.10,2013-05-29 14:38:00,
2013-05-29 10:53:00,67.8,58.0,29.76,South,189,3.0,6.0,71,0.00,,,0.00,190,weatherlink.com 1.10,2013-05-29 14:53:00,
2013-05-29 11:08:00,67.3,58.0,29.77,South,173,1.0,6.0,71,0.00,,,0.00,142,weatherlink.com 1.10,2013-05-29 15:08:00,
2013-05-29 11:23:00,67.1,58.0,29.76,ENE,65,2.0,5.0,73,0.00,,,0.00,142,weatherlink.com 1.10,2013-05-29 15:23:00,
2013-05-29 11:38:00,65.3,58.0,29.77,ENE,63,0.0,5.0,77,0.00,,,0.00,271,weatherlink.com 1.10,2013-05-29 15:38:00,
2013-05-29 11:53:00,65.7,59.0,29.77,ENE,63,0.0,2.0,78,0.00,,,0.00,313,weatherlink.com 1.10,2013-05-29 15:53:00,
2013-05-29 12:08:00,66.0,58.0,29.77,NE,44,2.0,5.0,76,0.00,,,0.00,309,weatherlink.com 1.10,2013-05-29 16:08:00,
2013-05-29 12:23:00,66.2,58.0,29.78,NE,49,0.0,3.0,75,0.00,,,0.00,218,weatherlink.com 1.10,2013-05-29 16:23:00,
2013-05-29 12:38:00,66.7,58.0,29.78,NE,51,0.0,4.0,73,0.00,,,0.00,281,weatherlink.com 1.10,2013-05-29 16:38:00,
2013-05-29 12:53:00,68.1,58.0,29.79,East,98,2.0,3.0,70,0.00,,,0.00,230,weatherlink.com 1.10,2013-05-29 16:53:00,
2013-05-29 13:23:00,68.6,59.0,29.78,SSW,195,0.0,3.0,71,0.00,,,0.00,220,weatherlink.com 1.10,2013-05-29 17:23:00,
2013-05-29 13:38:00,69.0,59.0,29.78,WSW,258,1.0,4.0,70,0.00,,,0.00,304,weatherlink.com 1.10,2013-05-29 17:38:00,
2013-05-29 13:53:00,69.1,59.0,29.78,SE,144,6.0,10.0,71,0.00,,,0.00,274,weatherlink.com 1.10,2013-05-29 17:53:00,
2013-05-29 14:08:00,69.6,60.0,29.78,South,173,3.0,10.0,72,0.00,,,0.00,292,weatherlink.com 1.10,2013-05-29 18:08:00,
2013-05-29 14:23:00,69.9,60.0,29.78,SSW,211,2.0,9.0,71,0.00,,,0.00,299,weatherlink.com 1.10,2013-05-29 18:23:00,
2013-05-29 14:38:00,70.3,60.0,29.77,SSE,151,3.0,9.0,70,0.00,,,0.00,346,weatherlink.com 1.10,2013-05-29 18:38:00,
2013-05-29 14:53:00,70.5,61.0,29.78,SSE,165,5.0,10.0,71,0.00,,,0.00,531,weatherlink.com 1.10,2013-05-29 18:53:00,
2013-05-29 15:08:00,71.8,61.0,29.78,SE,135,1.0,9.0,68,0.00,,,0.00,427,weatherlink.com 1.10,2013-05-29 19:08:00,
2013-05-29 15:23:00,72.1,61.0,29.78,SSE,148,2.0,9.0,69,0.00,,,0.00,1151,weatherlink.com 1.10,2013-05-29 19:23:00,
2013-05-29 15:38:00,73.1,61.0,29.78,SSE,161,4.0,8.0,66,0.00,,,0.00,429,weatherlink.com 1.10,2013-05-29 19:38:00,
2013-05-29 15:53:00,74.1,62.0,29.78,South,189,2.0,10.0,65,0.00,,,0.00,865,weatherlink.com 1.10,2013-05-29 19:53:00,
2013-05-29 16:09:00,75.1,63.0,29.77,SSE,165,3.0,7.0,66,0.00,,,0.00,817,weatherlink.com 1.10,2013-05-29 20:09:00,
2013-05-29 16:24:00,75.7,62.0,29.77,SSE,148,4.0,10.0,63,0.00,,,0.00,731,weatherlink.com 1.10,2013-05-29 20:24:00,
2013-05-29 16:39:00,76.5,62.0,29.77,South,179,0.0,6.0,62,0.00,,,0.00,715,weatherlink.com 1.10,2013-05-29 20:39:00,
2013-05-29 16:54:00,78.0,63.0,29.76,SW,227,0.0,10.0,60,0.00,,,0.00,677,weatherlink.com 1.10,2013-05-29 20:54:00,
2013-05-29 17:09:00,78.1,62.0,29.77,South,188,1.0,6.0,58,0.00,,,0.00,635,weatherlink.com 1.10,2013-05-29 21:09:00,
2013-05-29 17:24:00,78.8,61.0,29.75,SSE,165,2.0,5.0,55,0.00,,,0.00,443,weatherlink.com 1.10,2013-05-29 21:24:00,
2013-05-29 17:39:00,78.9,60.0,29.75,SW,214,2.0,7.0,53,0.00,,,0.00,70,weatherlink.com 1.10,2013-05-29 21:39:00,
2013-05-29 17:54:00,77.1,61.0,29.75,NNW,332,0.0,7.0,57,0.00,,,0.00,88,weatherlink.com 1.10,2013-05-29 21:54:00,
2013-05-29 18:09:00,73.9,60.0,29.74,NNE,32,2.0,5.0,62,0.00,,,0.00,81,weatherlink.com 1.10,2013-05-29 22:09:00,
2013-05-29 18:24:00,71.2,58.0,29.74,NNE,28,1.0,6.0,64,0.00,,,0.00,53,weatherlink.com 1.10,2013-05-29 22:24:00,
2013-05-29 18:39:00,69.1,58.0,29.74,NE,46,3.0,7.0,68,0.00,,,0.00,44,weatherlink.com 1.10,2013-05-29 22:39:00,
2013-05-29 18:54:00,67.7,57.0,29.74,NE,45,0.0,5.0,69,0.00,,,0.00,44,weatherlink.com 1.10,2013-05-29 22:54:00,
2013-05-29 19:09:00,66.2,57.0,29.74,NE,35,0.0,4.0,72,0.00,,,0.00,37,weatherlink.com 1.10,2013-05-29 23:09:00,
2013-05-29 19:24:00,65.5,57.0,29.74,North,11,0.0,5.0,73,0.00,,,0.00,33,weatherlink.com 1.10,2013-05-29 23:24:00,
2013-05-29 19:39:00,65.0,57.0,29.74,North,11,0.0,2.0,74,0.00,,,0.00,32,weatherlink.com 1.10,2013-05-29 23:39:00,
2013-05-29 19:54:00,64.8,57.0,29.74,North,9,0.0,1.0,75,0.00,,,0.00,28,weatherlink.com 1.10,2013-05-29 23:54:00,
2013-05-29 20:09:00,64.9,57.0,29.75,North,9,1.0,3.0,76,0.00,,,0.00,25,weatherlink.com 1.10,2013-05-30 00:09:00,
2013-05-29 20:24:00,64.6,57.0,29.74,North,9,0.0,0.0,76,0.00,,,0.00,19,weatherlink.com 1.10,2013-05-30 00:24:00,
2013-05-29 20:39:00,64.2,57.0,29.73,North,9,0.0,1.0,78,0.00,,,0.00,16,weatherlink.com 1.10,2013-05-30 00:39:00,
2013-05-29 20:54:00,63.8,57.0,29.73,North,9,0.0,0.0,79,0.00,,,0.00,18,weatherlink.com 1.10,2013-05-30 00:54:00,
2013-05-29 21:09:00,63.2,57.0,29.73,North,9,0.0,0.0,81,0.00,,,0.00,12,weatherlink.com 1.10,2013-05-30 01:09:00,
2013-05-29 21:24:00,62.6,57.0,29.73,North,9,0.0,2.0,83,0.00,,,0.00,0,weatherlink.com 1.10,2013-05-30 01:24:00,
2013-05-29 21:39:00,64.0,60.0,29.73,South,190,0.0,4.0,87,0.00,,,0.00,0,weatherlink.com 1.10,2013-05-30 01:39:00,
2013-05-29 21:54:00,65.8,62.0,29.74,South,173,1.0,6.0,86,0.00,,,0.00,0,weatherlink.com 1.10,2013-05-30 01:54:00,
2013-05-29 22:09:00,66.8,62.0,29.75,SW,229,4.0,8.0,85,0.00,,,0.00,0,weatherlink.com 1.10,2013-05-30 02:09:00,
2013-05-29 22:24:00,66.7,62.0,29.76,SSW,200,3.0,5.0,84,0.00,,,0.00,0,weatherlink.com 1.10,2013-05-30 02:24:00,
2013-05-29 22:39:00,66.2,62.0,29.77,South,188,5.0,9.0,85,0.00,,,0.00,0,weatherlink.com 1.10,2013-05-30 02:39:00,
2013-05-29 22:54:00,65.9,62.0,29.77,SSW,209,1.0,8.0,86,0.00,,,0.00,0,weatherlink.com 1.10,2013-05-30 02:54:00,
2013-05-29 23:09:00,65.7,62.0,29.77,South,186,1.0,5.0,87,0.00,,,0.00,0,weatherlink.com 1.10,2013-05-30 03:09:00,
2013-05-29 23:24:00,65.7,62.0,29.76,SSE,167,3.0,5.0,87,0.00,,,0.00,0,weatherlink.com 1.10,2013-05-30 03:24:00,
2013-05-29 23:39:00,65.6,62.0,29.76,South,188,2.0,7.0,87,0.00,,,0.00,0,weatherlink.com 1.10,2013-05-30 03:39:00,
2013-05-29 23:54:00,65.3,62.0,29.76,SSE,159,2.0,6.0,88,0.00,,,0.00,0,weatherlink.com 1.10,2013-05-30 03:54:00,